RH
91 94 86 82 95 84 86 99 100 100 92 87 72 74 42 51 49 61 52 52 52 50 48 52 82 80 58 62 70 71 59 70 93 75 51 56 68 70 66 93 67 69 61 96
89 92 86 89 94 96 100 99 100 100 99 85 83 50 51 46 50 53 53 55 52 47 52 62 57 90 50 57 66 80 64 70 95 75 52 50 68 54 57 57 66 71 71 94
88 89 82 93 98 97 99 98 100 99 99 80 53 50 49 53 52 50 48 51 51 50 51 49 58 91 49 60 59 72 70 64 84 80 74 73 87 54 59 87 77 75 85 78
91 86 88 93 97 97 95 98 89 91 97 75 49 43 42 48 52 48 51 55 56 66 60 52 54 73 56 48 53 55 55 77 58 54 58 53 56 56 51 69 54 79 65 66
86 89 85 92 91 80 97 82 83 86 69 63 56 47 43 43 47 47 51 58 52 58 62 62 58 54 66 70 49 53 49 67 60 62 48 49 65 58 55 54 50 53 55 64
87 91 89 95 84 79 98 86 77 59 68 63 59 43 39 40 43 51 50 45 57 60 55 53 51 52 53 56 59 57 56 56 60 66 51 50 57 71 62 58 55 52 68 57
87 90 89 88 87 86 93 74 66 46 53 51 50 42 39 39 43 48 54 54 52 65 65 66 60 54 54 53 56 57 58 56 55 50 44 60 59 54 58 62 60 50 50 49
85 81 88 95 90 100 90 70 53 43 42 42 48 42 38 48 54 53 56 64 72 68 71 55 58 56 60 59 58 58 56 54 50 52 54 57 57 56 67 81 69 49 49 45
92 89 89 97 94 96 94 79 64 50 39 43 43 42 44 44 48 58 70 79 81 86 58 56 57 55 50 53 59 57 54 50 52 52 59 59 49 51 53 50 83 54 51 50
98 92 77 91 94 90 73 63 58 50 50 72 53 41 39 42 45 51 63 70 79 80 58 55 58 48 54 50 49 51 46 45 51 49 55 54 45 49 54 63 80 59 57 58
84 80 73 84 97 82 67 48 38 50 63 81 74 58 50 53 45 46 60 60 70 71 65 52 52 48 49 51 50 49 46 45 43 48 50 65 53 55 55 62 68 63 64 66
82 69 75 88 84 77 61 40 38 43 61 85 63 57 51 50 49 60 71 62 63 57 54 52 50 50 64 47 40 50 47 46 46 49 55 62 69 66 73 64 64 73 70 75
99 99 94 81 77 58 38 32 35 39 70 76 72 79 60 55 56 66 60 66 74 71 63 53 52 52 46 42 42 44 49 50 46 53 58 61 68 78 78 76 78 84 85 81
93 81 67 51 37 33 31 29 32 34 54 45 72 64 61 58 62 62 58 60 65 66 68 52 49 52 62 45 53 52 46 52 45 50 56 63 66 69 77 82 80 81 81 88
69 56 48 38 32 32 35 33 32 33 50 52 64 62 61 58 56 55 55 67 73 62 54 49 48 56 57 54 56 49 51 43 46 37 41 42 46 66 79 79 76 69 80 84
89 63 46 42 35 38 36 32 32 31 33 60 57 74 80 67 62 62 65 66 64 66 56 52 60 73 63 52 40 28 43 45 41 42 49 52 58 72 67 73 67 69 68 67
86 87 80 59 50 44 36 37 33 35 34 50 71 65 81 69 66 65 72 62 66 65 63 58 57 65 72 56 44 28 43 55 63 60 68 76 78 73 65 69 68 68 68 66
85 92 91 75 55 47 38 35 37 36 33 40 80 76 69 62 64 63 61 66 68 69 64 72 60 67 66 65 40 42 49 60 69 68 63 61 66 71 68 70 68 67 72 74
77 78 68 65 58 47 40 41 40 35 30 68 70 80 82 70 77 78 74 75 62 73 57 55 67 49 64 43 36 44 57 68 69 72 67 65 63 67 67 63 59 63 80 79
90 73 51 50 48 44 37 40 36 32 35 42 61 71 80 80 70 69 71 75 61 86 56 74 69 55 42 41 42 42 54 64 71 80 79 75 73 68 61 56 60 71 82 84
62 56 55 49 43 38 35 47 59 52 67 65 72 66 75 83 72 66 66 82 76 81 67 67 65 54 49 54 42 45 49 56 53 57 60 62 60 54 55 52 58 65 72 81
75 66 46 44 42 46 70 73 69 69 58 78 72 76 78 84 76 70 77 83 82 74 67 75 69 43 52 52 54 44 61 57 64 66 61 58 57 51 49 54 57 61 72 81
94 56 49 60 70 90 80 72 71 77 76 89 88 87 82 81 84 78 75 86 75 66 86 72 60 61 49 53 60 51 63 65 70 68 64 56 52 52 50 47 52 64 76 83
98 96 98 93 95 76 84 69 82 71 77 89 82 85 73 74 77 73 80 64 70 84 83 67 53 59 49 49 56 54 65 70 64 64 57 52 55 48 45 45 49 51 68 81
98 99 99 97 77 90 86 74 70 71 85 84 81 80 70 77 83 65 79 88 86 68 71 63 66 42 47 52 57 54 57 67 64 60 55 56 53 49 48 44 44 50 62 71
100 100 100 95 93 95 100 96 100 84 91 60 57 85 85 79 75 81 83 68 71 78 87 74 45 46 50 57 58 54 52 60 62 62 60 60 54 51 45 44 50 56 67 73
100 99 100 96 99 94 93 91 86 79 73 89 86 81 73 74 79 75 65 78 81 65 51 46 47 50 50 57 55 53 57 64 66 63 64 58 55 45 41 46 52 57 61 64
Wind_Speed
11 11 11 10 10 12 9 9 2 21 21 4 3 4 1 1 8 4 2 1 1 4 5 3 1 2 2 5 4 5 3 4 4 4 3 5 7 9 4 4 5 6 6 6
11 9 10 9 12 9 22 10 4 19 12 3 4 2 2 1 4 5 2 2 2 2 4 2 4 3 4 4 5 7 9 5 3 5 4 5 5 14 3 3 2 13 5 4
8 10 10 10 11 10 20 6 3 3 6 2 2 4 3 3 2 4 1 1 2 4 4 1 4 1 2 5 5 9 5 5 5 6 5 5 7 14 12 3 8 12 13 14
8 11 10 13 10 12 14 4 4 6 4 6 4 4 4 6 3 1 3 2 4 1 2 4 3 2 4 1 4 2 3 3 5 7 7 12 12 16 18 13 14 9 14 17
7 11 12 16 12 12 8 3 4 4 0 8 9 4 4 7 4 5 4 4 5 4 0 3 3 4 1 2 5 3 3 2 4 6 8 12 15 17 15 14 15 15 16 15
9 10 12 17 16 15 6 5 9 5 6 8 8 5 5 7 6 1 4 3 5 3 4 1 5 4 5 3 5 6 4 2 2 3 2 4 5 12 9 13 13 10 10 9
10 10 10 17 16 20 10 9 6 3 4 6 8 3 7 9 5 2 2 4 1 3 5 4 3 4 3 3 4 4 4 2 2 2 4 2 3 5 8 12 12 11 10 10
11 14 12 21 14 19 17 15 2 2 2 4 5 6 5 10 7 7 6 3 2 4 2 3 4 4 5 2 2 2 2 3 0 2 5 4 3 2 3 5 8 10 10 9
13 16 17 22 22 18 23 16 12 3 4 3 5 9 12 9 5 4 2 3 4 2 2 2 2 1 2 3 3 2 3 3 3 1 2 1 4 4 4 6 2 7 9 10
15 20 24 24 24 26 16 12 13 1 5 3 5 4 9 3 3 3 4 3 1 2 2 1 1 2 1 0 0 2 1 1 1 3 2 4 4 2 3 3 4 4 6 8
13 25 33 34 30 29 15 9 8 4 5 5 3 5 4 4 4 3 7 4 2 2 3 2 1 1 2 2 1 1 2 2 1 1 0 4 2 3 4 5 6 5 6 6
18 30 37 33 35 24 14 9 5 9 7 6 8 9 7 5 4 2 7 2 2 2 2 1 2 1 1 2 2 2 1 3 3 4 3 3 3 5 5 4 6 4 4 4
30 38 42 32 29 22 14 11 9 10 10 8 4 3 6 4 3 7 2 1 2 1 1 2 2 2 3 1 1 1 3 2 1 3 4 6 6 5 5 4 5 4 4 3
42 39 37 29 22 19 14 13 6 8 7 4 3 4 4 3 3 4 1 2 3 4 1 1 1 2 1 2 2 4 2 7 5 2 4 4 5 5 6 6 5 3 2 3
41 36 31 25 20 18 12 9 8 3 4 4 6 6 4 3 3 2 2 5 2 1 1 2 0 0 2 1 2 6 10 6 5 2 11 7 12 13 10 7 5 3 2 1
36 35 24 17 15 15 9 3 2 4 7 5 4 2 2 4 4 3 3 3 2 1 1 0 1 1 2 2 3 4 16 10 5 2 12 6 12 13 12 8 6 4 3 3
34 32 32 17 7 7 2 2 5 4 3 3 4 3 1 4 4 1 1 1 1 0 1 2 1 2 3 3 4 4 15 14 10 12 16 9 14 9 15 11 9 7 7 7
28 30 29 27 11 1 3 3 9 4 3 3 3 1 2 5 2 2 1 1 1 1 1 1 3 2 4 5 12 6 14 15 13 16 11 6 13 11 14 12 10 8 7 8
28 26 22 22 9 2 2 4 6 2 1 4 2 4 2 6 2 1 1 0 2 2 2 2 2 4 6 7 11 18 22 20 18 18 15 11 14 15 13 12 11 10 8 10
27 24 9 5 6 5 3 1 2 3 3 3 3 4 3 5 5 3 2 1 1 2 2 2 4 5 20 11 10 17 24 18 22 20 16 15 15 17 15 13 10 10 10 11
25 9 5 9 13 7 3 2 3 2 2 4 4 5 5 7 3 2 3 1 1 2 2 2 3 4 4 9 19 17 24 23 22 21 17 19 15 17 15 13 11 10 10 10
11 2 10 12 4 3 2 3 1 4 3 6 7 6 4 6 4 3 3 1 1 3 3 2 4 3 5 6 17 19 23 24 21 21 16 15 14 13 13 12 10 10 10 10
17 4 3 4 4 3 5 7 4 3 10 11 9 5 6 5 3 3 2 4 3 1 2 4 5 2 5 8 17 19 22 24 21 20 16 15 15 13 12 11 10 10 11 12
7 6 4 6 5 6 5 4 3 6 11 21 17 8 4 4 4 3 4 2 2 3 4 6 2 6 11 11 18 21 25 26 22 22 18 15 13 12 10 9 10 11 12 14
6 6 6 7 7 1 3 7 8 8 21 24 11 6 4 3 3 3 3 3 5 6 5 2 1 5 11 13 21 24 28 29 25 22 18 15 13 11 9 9 10 12 12 14
6 9 4 4 3 4 4 9 7 18 24 16 6 4 3 4 3 5 8 5 7 3 3 4 4 4 11 13 20 23 26 27 23 19 15 13 12 9 8 10 11 10 11 11
7 6 13 8 5 5 8 11 11 25 22 3 4 6 6 4 3 4 5 5 2 2 4 4 5 6 12 15 20 20 23 23 21 17 15 13 11 10 10 11 9 11 12 13
Wind_Direction
279 261 241 234 210 210 217 176 104 155 141 141 194 225 201 98 146 127 122 339 14 214 169 144 150 272 303 27 301 311 338 297 315 284 279 278 300 321 328 328 56 18 77 46
268 239 220 202 201 180 161 121 95 161 153 168 201 148 150 108 144 158 129 180 269 222 188 112 133 230 301 325 322 341 348 356 296 307 149 22 356 9 35 8 341 30 58 65
243 209 194 186 195 173 150 122 117 133 207 277 268 169 168 127 78 125 115 44 208 200 178 28 150 218 317 354 325 319 300 20 6 48 38 342 347 41 52 55 70 84 71 79
189 186 180 173 181 160 139 135 132 161 180 211 227 231 160 144 141 194 194 188 238 247 166 152 145 125 300 282 331 282 328 61 49 63 64 50 45 53 60 58 70 71 80 65
174 169 162 171 170 173 163 112 130 147 79 175 204 198 192 180 126 167 181 269 163 152 50 8 158 133 136 338 321 9 344 95 92 76 62 63 55 31 54 50 80 95 86 74
161 166 169 173 174 174 149 164 142 180 147 169 198 200 157 183 156 178 341 252 153 156 75 68 67 75 97 62 354 349 4 339 305 123 308 291 39 11 29 57 46 44 69 54
163 168 181 186 188 183 156 163 148 217 148 192 196 161 153 164 164 133 117 162 245 96 126 117 120 109 112 121 65 8 338 330 313 354 277 79 54 43 24 66 44 43 60 49
176 176 186 180 192 187 181 184 150 318 102 149 134 148 152 126 110 97 114 50 80 134 204 203 163 157 179 128 59 49 347 274 260 286 48 113 132 95 30 8 42 26 34 39
198 200 186 185 185 186 181 206 216 346 145 81 134 144 163 149 131 142 67 76 125 320 269 254 247 118 50 146 166 204 250 241 280 52 120 125 61 81 359 341 77 28 31 31
209 200 189 184 175 156 175 194 222 181 96 89 150 130 164 162 175 91 134 151 192 319 284 265 291 98 352 173 133 75 81 3 359 66 72 101 99 24 358 255 101 81 53 40
179 192 181 174 174 165 167 201 213 150 92 107 94 119 130 155 196 175 137 148 192 218 254 288 77 286 98 230 72 20 336 320 61 195 162 133 110 176 295 90 103 92 64 54
122 144 157 164 157 166 194 208 202 148 122 135 118 120 136 142 131 83 166 357 163 204 274 258 315 219 205 337 117 181 186 358 21 351 44 89 92 87 110 96 116 92 80 64
131 134 140 143 161 180 187 181 140 117 105 93 115 101 112 118 125 149 228 207 182 180 173 346 3 287 324 241 275 164 188 202 226 211 139 139 131 123 116 103 105 93 83 76
142 142 144 144 143 134 132 124 121 126 122 119 108 127 114 103 130 173 192 262 191 155 100 293 282 291 318 13 3 277 52 162 186 146 161 159 187 172 158 140 137 120 98 84
153 147 144 145 142 137 121 102 102 66 140 112 132 117 83 111 132 129 136 148 131 168 223 233 306 12 250 220 280 240 187 184 193 232 175 190 178 176 171 163 165 153 129 29
171 166 148 136 127 121 113 105 99 65 101 104 142 176 113 114 123 137 154 164 165 36 305 76 164 258 272 259 249 242 192 192 230 181 163 161 156 166 176 179 199 214 226 244
171 179 182 170 136 118 56 164 164 133 84 93 113 139 250 151 119 111 46 147 237 66 239 232 247 199 227 254 244 178 187 186 176 155 151 138 169 186 190 199 214 227 235 244
169 172 181 187 182 146 5 139 157 129 74 104 114 78 175 177 166 170 182 263 241 307 242 223 225 188 224 252 229 181 174 175 175 179 188 188 180 180 194 207 218 227 236 245
165 165 172 179 196 254 314 152 165 140 186 127 131 155 168 165 163 134 163 219 243 259 250 223 207 202 229 228 208 187 181 181 182 178 193 183 187 193 204 214 228 236 238 250
156 156 146 203 201 199 155 256 210 220 213 142 126 132 131 167 174 158 167 259 284 255 145 148 227 254 250 236 214 203 191 183 178 171 187 189 191 200 210 222 232 238 243 250
148 175 172 166 155 170 229 246 231 193 200 171 136 166 138 178 172 163 206 192 264 256 132 246 251 261 218 210 204 192 195 191 195 199 208 204 204 204 213 225 238 248 250 255
169 146 126 139 197 210 212 214 204 215 204 152 150 153 132 151 149 163 188 188 192 253 137 249 255 240 184 192 189 188 184 189 185 195 196 200 204 212 220 231 240 250 252 258
146 161 184 182 188 232 212 197 210 205 168 170 156 139 147 134 162 124 167 187 217 109 224 241 241 151 192 188 182 183 184 186 187 188 194 200 206 214 218 228 239 248 254 255
167 171 219 216 194 234 187 204 173 160 153 147 144 123 140 138 159 153 179 163 188 231 237 236 232 221 203 190 184 182 182 185 188 190 192 196 204 209 219 237 253 263 262 261
170 189 224 215 237 238 187 156 133 145 151 145 126 106 137 142 141 190 124 177 239 224 235 233 245 211 196 190 186 186 187 186 188 192 196 200 205 214 232 253 268 275 272 270
216 217 242 239 235 214 200 185 151 158 157 154 129 126 159 193 174 177 210 193 223 229 218 239 219 210 187 189 187 191 192 190 190 196 200 204 212 229 252 262 275 278 278 285
222 230 223 217 259 237 202 189 187 166 162 195 156 166 185 109 196 227 197 216 238 200 218 225 213 201 184 180 181 186 188 189 192 198 202 206 218 241 260 272 280 276 278 280